TimeCST,TemperatureF,Dew PointF,Humidity,Sea Level PressureIn,VisibilityMPH,Wind Direction,Wind SpeedMPH,Gust SpeedMPH,PrecipitationIn,Events,Conditions,WindDirDegrees,DateUTC
12:52 AM,44.1,42.1,93,30.08,6.0,North,10.4,-,N/A,,Overcast,360,2012-11-05 06:52:00
1:52 AM,43.0,41.0,93,30.09,6.0,North,11.5,-,N/A,,Overcast,350,2012-11-05 07:52:00
2:52 AM,41.0,39.0,93,30.11,7.0,North,13.8,-,N/A,,Overcast,360,2012-11-05 08:52:00
3:52 AM,39.9,37.9,93,30.12,8.0,North,12.7,-,0.00,,Overcast,350,2012-11-05 09:52:00
4:52 AM,39.0,37.0,93,30.14,9.0,NNW,15.0,-,N/A,,Overcast,340,2012-11-05 10:52:00
5:52 AM,39.0,37.0,93,30.15,10.0,North,13.8,-,N/A,,Overcast,350,2012-11-05 11:52:00
6:24 AM,39.2,35.6,87,30.14,10.0,NNW,13.8,-,N/A,,Overcast,340,2012-11-05 12:24:00
6:52 AM,39.0,36.0,89,30.16,10.0,North,13.8,-,N/A,,Overcast,350,2012-11-05 12:52:00
7:37 AM,39.2,35.6,87,30.15,7.0,NNW,11.5,-,N/A,,Overcast,340,2012-11-05 13:37:00
7:52 AM,39.0,37.0,93,30.18,6.0,North,12.7,-,N/A,,Overcast,350,2012-11-05 13:52:00
8:52 AM,39.9,36.0,86,30.19,8.0,North,13.8,-,N/A,,Overcast,360,2012-11-05 14:52:00
9:52 AM,39.0,36.0,89,30.21,8.0,NNW,12.7,-,N/A,,Overcast,340,2012-11-05 15:52:00
10:30 AM,39.2,35.6,87,30.19,10.0,North,12.7,-,N/A,,Overcast,350,2012-11-05 16:30:00
10:52 AM,39.9,36.0,86,30.22,7.0,NNW,13.8,-,N/A,,Overcast,330,2012-11-05 16:52:00
11:52 AM,41.0,36.0,82,30.20,10.0,NNW,11.5,-,N/A,,Overcast,330,2012-11-05 17:52:00
12:52 PM,41.0,36.0,82,30.19,10.0,NW,12.7,-,N/A,,Overcast,320,2012-11-05 18:52:00
1:19 PM,41.0,35.6,81,30.16,10.0,NNW,11.5,-,N/A,,Overcast,330,2012-11-05 19:19:00
1:52 PM,42.1,35.1,76,30.17,10.0,North,8.1,-,N/A,,Overcast,350,2012-11-05 19:52:00
2:52 PM,42.1,35.1,76,30.15,10.0,NNW,6.9,-,N/A,,Overcast,340,2012-11-05 20:52:00
3:52 PM,42.1,34.0,73,30.16,10.0,WNW,3.5,-,N/A,,Overcast,290,2012-11-05 21:52:00
4:52 PM,41.0,33.1,73,30.14,10.0,WSW,3.5,-,N/A,,Overcast,250,2012-11-05 22:52:00
5:52 PM,39.9,33.1,77,30.14,10.0,WSW,5.8,-,N/A,,Overcast,250,2012-11-05 23:52:00
6:52 PM,39.0,34.0,82,30.14,10.0,SSW,3.5,-,N/A,,Overcast,210,2012-11-06 00:52:00
7:52 PM,39.0,34.0,82,30.12,10.0,SSW,4.6,-,N/A,,Overcast,210,2012-11-06 01:52:00
8:52 PM,39.0,34.0,82,30.11,10.0,SSW,4.6,-,N/A,,Overcast,210,2012-11-06 02:52:00
9:52 PM,39.0,34.0,82,30.09,10.0,South,6.9,-,N/A,,Overcast,190,2012-11-06 03:52:00
10:34 PM,39.2,33.8,81,30.04,10.0,South,8.1,-,N/A,,Mostly Cloudy,180,2012-11-06 04:34:00
10:52 PM,39.0,34.0,82,30.06,10.0,South,9.2,-,N/A,,Overcast,190,2012-11-06 04:52:00
11:52 PM,39.9,35.1,83,30.02,10.0,South,12.7,-,N/A,,Overcast,190,2012-11-06 05:52:00